This demonstration page uses our WeatherBlox Daily Observations layout. Learn more.

38.88101, -77.10428

Hourly Observations for September 11, 2018

Temp ( °F °C ) Dew Point ( °F °C ) Humidity (%) Winds ( mph kmh ) Pressure ( in mb ) Visibility ( mi km ) Precip ( " mm )
12:37 am 00:37 Cloudy 73 22.8 70 21.1 90 90 ENE 6 9 30.06 1018 8 12.87472 0 0
12:52 am 00:52 Cloudy with Mist and Fog 73 22.8 70 21.1 90 90 E 7 11 30.05 1018 6 9.65604 0 0
1:00 am 01:00 Cloudy with Mist and Fog 73 22.8 71 21.7 94 94 E 6 9 30.06 1018 2.5 4.02335 0 0
1:48 am 01:48 Mostly Cloudy with Mist and Fog 73 23 70 21 89 89 NE 6 9 30.06 1018 1.5 2.41401 0 0
1:52 am 01:52 Mostly Cloudy with Mist and Fog 73 22.8 70 21.1 90 90 NNE 5 7 30.05 1018 1.5 2.41401 0 0
2:21 am 02:21 Mostly Cloudy with Fog 72 22.2 70 21.1 94 94 NE 7 11 30.06 1018 0.5 0.80467 0 0
2:52 am 02:52 Mostly Cloudy with Fog 72 22.2 70 21.1 94 94 NE 6 9 30.04 1017 1 1.60934 0 0
3:52 am 03:52 Mostly Cloudy with Fog 72 22.2 70 21.1 94 94 NE 6 9 30.03 1017 1 1.60934 0 0
4:52 am 04:52 Mostly Cloudy with Fog 72 22.2 70 21.1 94 94 NNE 5 7 30.04 1017 1 1.60934 0 0
5:49 am 05:49 Cloudy with Mist and Fog 72 22 70 21 94 94 NNE 6 9 30.06 1018 1 1.60934 0 0
5:52 am 05:52 Cloudy with Mist and Fog 71 21.7 70 21.1 96 96 NNE 5 7 30.05 1018 1 1.60934 0 0
6:52 am 06:52 Cloudy with Mist and Fog 71 21.7 69 20.6 94 94 NE 8 13 30.05 1018 1.5 2.41401 0 0
7:16 am 07:16 Cloudy with Mist and Fog 71 21.7 69 20.6 94 94 NNE 7 11 30.06 1018 3 4.82802 0 0
7:48 am 07:48 Cloudy with Light Drizzle 72 22 70 21 94 94 NNE 7 11 30.09 1019 1.75 2.816345 0 0.0254
7:52 am 07:52 Cloudy with Light Drizzle 71 21.7 69 20.6 94 94 NNE 8 13 30.08 1019 1.75 2.816345 0 0.0254
8:52 am 08:52 Cloudy with Mist and Fog 71 21.7 69 20.6 94 94 NE 6 9 30.09 1019 1.75 2.816345 0 0.0254
8:59 am 08:59 Cloudy with Mist and Fog 71 21.7 69 20.6 94 94 ENE 6 9 30.09 1019 2 3.21868 0 0
9:17 am 09:17 Cloudy with Mist and Fog 72 22.2 70 21.1 94 94 NNE 6 9 30.09 1019 4 6.43736 0 0
9:52 am 09:52 Cloudy 73 22.8 70 21.1 90 90 N 6 9 30.1 1019 7 11.26538 0 0
10:52 am 10:52 Cloudy 74 23.3 70 21.1 88 88 NNW 9 15 30.12 1020 8 12.87472 0 0
11:52 am 11:52 Cloudy 75 23.9 71 21.7 88 88 NE 6 9 30.12 1020 10 16.0934 0 0
12:26 pm 12:26 Cloudy 76 24.4 70 21.1 82 82 NE 5 7 30.12 1020 10 16.0934 0 0
12:52 pm 12:52 Cloudy 76 24.4 70 21.1 82 82 NNE 3 6 30.12 1020 10 16.0934 0 0
1:52 pm 13:52 Cloudy 76 24.4 71 21.7 85 85 NNW 7 11 30.12 1020 10 16.0934 0 0.0254
2:10 pm 14:10 Cloudy 76 24.4 71 21.7 85 85 NNW 8 13 30.12 1020 10 16.0934 0 0
2:52 pm 14:52 Cloudy 76 24.4 71 21.7 85 85 NNW 8 13 30.1 1019 10 16.0934 0 0
3:52 pm 15:52 Cloudy 76 24.4 70 21.1 82 82 N 7 11 30.11 1020 10 16.0934 0 0
4:01 pm 16:01 Cloudy 76 24.4 70 21.1 82 82 N 6 9 30.12 1020 10 16.0934 0 0
4:52 pm 16:52 Cloudy 76 24.4 70 21.1 82 82 N 5 7 30.11 1020 10 16.0934 0 0
5:52 pm 17:52 Cloudy 76 24.4 70 21.1 82 82 NNW 8 13 30.11 1020 10 16.0934 0 0
6:13 pm 18:13 Cloudy with Nearby Thunderstorms 75 23.9 70 21.1 84 84 NNW 9 15 30.12 1020 10 16.0934 0 0
6:28 pm 18:28 Cloudy 75 23.9 69 20.6 82 82 NW 12 19 30.12 1020 10 16.0934 0 0
6:31 pm 18:31 Cloudy with Nearby Thunderstorms 75 23.9 69 20.6 82 82 NNW 12 19 30.12 1020 10 16.0934 0 0
6:52 pm 18:52 Cloudy with Nearby Thunderstorms 74 23.3 69 20.6 85 85 NW 10 17 30.12 1020 10 16.0934 0 0
7:12 pm 19:12 Cloudy with Nearby Thunderstorms 74 23.3 69 20.6 85 85 NNW 8 13 30.12 1020 10 16.0934 0 0
7:19 pm 19:19 Cloudy with Thunderstorms 74 23.3 69 20.6 85 85 N 9 15 30.12 1020 10 16.0934 0 0
7:34 pm 19:34 Cloudy with Nearby Thunderstorms 73 22.8 69 20.6 87 87 N 9 15 30.12 1020 10 16.0934 0 0
7:38 pm 19:38 Cloudy with Thunderstorms 73 22.8 69 20.6 87 87 NNW 10 17 30.15 1021 10 16.0934 0 0
7:52 pm 19:52 Cloudy 73 22.8 69 20.6 87 87 N 9 15 30.14 1021 10 16.0934 0 0
8:19 pm 20:19 Cloudy 73 22.8 69 20.6 87 87 N 8 13 30.15 1021 10 16.0934 0 0
8:52 pm 20:52 Cloudy 73 22.8 68 20 84 84 N 8 13 30.16 1021 10 16.0934 0 0
9:16 pm 21:16 Cloudy 72 22.2 68 20 87 87 N 8 13 30.18 1022 10 16.0934 0 0
9:40 pm 21:40 Cloudy 73 22.8 68 20 84 84 N 7 11 30.15 1021 10 16.0934 0 0
9:52 pm 21:52 Cloudy 72 22.2 68 20 87 87 NNW 9 15 30.15 1021 10 16.0934 0 0
10:52 pm 22:52 Cloudy 72 22.2 67 19.4 84 84 N 6 9 30.16 1021 10 16.0934 0 0
11:52 pm 23:52 Cloudy 72 22.2 67 19.4 84 84 N 7 11 30.15 1021 10 16.0934 0 0

Powered by AerisWeather